Location: ??
(35.1714°N, 128.2806°E)
Time: 21:44:03
(UTC+00:00)

Tiangong - Pass Details

Date: 25 June 2021
Orbit: 374 x 385 km, 41.5° (Epoch: 24 July)

Event Time Altitude Azimuth Distance (km) Brightness Sun altitude
Exits shadow 17:51:26 26° 340° (NNW) 790 2.9 -22.5°
Maximum altitude 17:51:46 26° 353° (N) 776 3.0 -22.5°
Drops below altitude 10° 17:54:30 10° 53° (NE) 1,389 4.9 -22.2°
Sets 17:56:46 0° 66° (ENE) 2,245 5.9 -21.9°
